Погода в Кепервееме

Россия / Чукотский автономный округ     67°50′30″N   166°08′47″E
темп.,
°C
ветер,
м/с
пор.,
м/с
влажн.,
%
обл.,
%
осадки,
мм/ч
давл.,
гПа
погр.,
м
22 апреля, чт
чт2200:00−14вюв21815 0.0 102910
03:00−15вюв228114 0.0 10299
06:00−14вюв21802 0.0 102910
09:00−5вюв12685 0.0 102692
12:00−1ююв12724 0.0 1024211
15:000юв12895 0.0 1022185
18:000вюв11865 0.0 102113
21:00−8юв228677 0.0 102210
23 апреля, пт
пт2300:00−11юв1187100 0.0 10229
03:00−13вюв1186100 0.0 10229
06:00−14юв118590 0.0 10229
09:00−7ююв117259 0.0 102098
12:00−3зюз1169100 0.0 1019235
15:00−2сз108084 0.0 1018283
18:00−2ссв11875 0.0 101843
21:00−9в119319 0.0 101810
24 апреля, сб
сб2400:00−14вюв219418 0.0 101810
03:00−16в219115 0.0 101710
06:00−16в219084 0.0 101711
09:00−8св117998 0.0 1014129
12:00−4св227253 0.0 1012297
15:00−2св127397 0.0 1011328
18:00−2св1183100 0.0 101015
21:00−8вюв1187100 0.0 101110
25 апреля, вс
вс2500:00−12вюв1185100 0.0 101110
03:00−12юв1184100 0.0 101110
06:00−11вюв1185100 0.0 101110
09:00−6з0076100 0.0 100985
12:00−4зсз0075100 0.0 1009199
15:00−2з1176100 0.0 1010272
18:00−2сз1178100 0.0 1011324
21:00−6ссв1190100 0.0 101210
26 апреля, пн
пн2600:00−7всв1195100 0.0 101310
03:00−7всв1197100 0.3 101410
06:00−6всв1196100 0.9 101445
09:00−3в1190100 0.1 1014166
12:00−1вюв1284100 0.1 1014419
15:00−1юв1284100 0.0 1014453
18:00−1вюв1185100 0.0 101514
21:00−7вюв228876 0.0 101610